User: anonymous   Login
Location: Asheville, NC
(35.6000°N, 82.5500°W)
Time: 21:59:40
(UTC-04:00)
Language:

ESTCUBE 1 - Orbit

View from above orbital plane
View from above orbital plane
View from above satellite
View from above satellite

Ground track
Ground track

The orbit data is extracted from the following two-line orbital elements,

1 39161U 13021C   18115.68840829  .00000228  00000-0  44166-4 0  9995
2 39161  98.0079 202.3469 0008533 218.5438 141.5162 14.72050270266722
Epoch (UTC): 25 April 2018 16:31:18
Eccentricity: 0.0008533
inclination: 98.0079°
perigee height: 648 km
apogee height: 660 km
right ascension of ascending node: 202.3469°
argument of perigee: 218.5438°
revolutions per day: 14.72050270
mean anomaly at epoch: 141.5162°
orbit number at epoch: 26672

The dashed part of the orbit path shows where the satellite is in the earth's shadow,  

DLR